Monte Terminillo, Italy

6:20 AM CEST on May 25, 2017 (GMT +0200)
Monte Terminillo

Weather History for LIRK - December, 2012

Change the Weather History Date:

Sunday, December 30, 2012

  Actual Average Record
Temperature  
Mean Temperature 34 °F -  
Max Temperature 40 °F 31 °F 46 °F (2015)
Min Temperature 28 °F 24 °F 5 °F (2014)
Degree Days  
Heating Degree Days 31    
Moisture  
Dew Point 12 °F    
Average Humidity 39    
Maximum Humidity 65    
Minimum Humidity 18    
Precipitation  
Precipitation 0.00 in -13.12 in - ()
Sea Level Pressure  
Sea Level Pressure 30.14 in    
Wind  
Wind Speed 14 mph ()    
Max Wind Speed 39 mph    
Max Gust Speed -    
Visibility 9.2 miles    
Events      
Averages and records for this station are not official NWS values.
T = Trace of Precipitation, MM = Missing Value Source: Averaged Metar Reports

Daily Weather History Graph

Daily Weather History Graph

Search for Another Location

Airport or City:

Trip Planner

Search our weather history database for the weather conditions in past years. The results will help you decide how hot, cold, wet, or windy it might be!

Date:

Astronomy

Dec. 30, 2012 Rise Set
Actual Time 7:37 AM CET 4:44 PM CET
Civil Twilight 7:05 AM CET 5:16 PM CET
Nautical Twilight 6:30 AM CET 5:51 PM CET
Astronomical Twilight 5:55 AM CET 6:25 PM CET
Moon 7:01 PM CET (12/30) 8:34 AM CET (12/30)
Length of Visible Light 10h 10m
Length of Day
9h 06m
Waning Gibbous, 96% of the Moon is Illuminated
Dec 30
Waning Gibbous
Jan 5
Last Quarter
Jan 11
New
Jan 19
First Quarter
Jan 27
Full

Hourly Weather History & Observations

Time (CET) Temp. Dew Point Humidity Pressure Visibility Wind Dir Wind Speed Gust Speed Precip Events Conditions
12:55 AM 30.2 °F 6.8 °F 37% 30.15 in - North - - N/A   Clear
1:00 AM 30 °F 7 °F 24%  in 6 mi NNE 39.1 mph - -  
1:55 AM 30.2 °F 5.0 °F 34% 30.15 in - North - - N/A   Clear
2:55 AM 30.2 °F 5.0 °F 34% 30.15 in - North - - N/A   Clear
3:55 AM 30.2 °F 6.8 °F 37% 30.15 in - North - - N/A   Clear
5:55 AM 28.4 °F 5.0 °F 37% 30.15 in - North - - N/A   Clear
6:55 AM 30.2 °F 6.8 °F 37% 30.15 in - North - - N/A   Clear
7:00 AM 30 °F 7 °F 23%  in 6 mi NE 6.9 mph - -  
7:55 AM 30.2 °F 6.8 °F 37% 30.15 in - North - - N/A   Clear
8:55 AM 30.2 °F 5.0 °F 34% 30.15 in - North - - N/A   Clear
9:55 AM 30.2 °F 5.0 °F 34% 30.12 in - North - - N/A   Clear
10:55 AM 32.0 °F 3.2 °F 30% 30.12 in - North - - N/A   Clear
11:55 AM 33.8 °F 5.0 °F 30% 30.12 in - North - - N/A   Clear
12:55 PM 33.8 °F 6.8 °F 32% 30.12 in - North - - N/A   Clear
1:00 PM 35 °F 7 °F 18%  in 16 mi Calm Calm - -  
1:55 PM 33.8 °F 6.8 °F 32% 30.15 in - North - - N/A   Clear
3:55 PM 37.4 °F 14.0 °F 38% 30.15 in - North - - N/A   Clear
4:55 PM 39.2 °F 15.8 °F 39% 30.15 in - North - - N/A   Partly Cloudy
5:55 PM 39.2 °F 21.2 °F 49% 30.12 in - North - - N/A   Partly Cloudy
6:55 PM 39.2 °F 23.0 °F 52% 30.12 in - North - - N/A   Clear
7:00 PM 40 °F 23 °F 38%  in 9 mi NNE 13.8 mph - -  
7:55 PM 39.2 °F 23.0 °F 52% 30.12 in - North - - N/A   Clear
8:55 PM 37.4 °F 23.0 °F 56% 30.12 in - North - - N/A   Clear
9:55 PM 35.6 °F 23.0 °F 60% 30.15 in - North - - N/A   Clear
10:55 PM 35.6 °F 24.8 °F 65% 30.15 in - North - - N/A   Clear
11:55 PM 35.6 °F 24.8 °F 65% 30.18 in - North - - N/A   Clear